#timestamp,LO_Frequency,Hit,StdDev 
1552413615.7,286047002.3,N
1552413635.5,286047003.7,N
1552413655.4,286047005.5,N
1552413675.2,286047003.9,N
1552413695.0,286047004.1,N
1552413695.9,286047004.1,N
1552413715.8,286047004.0,N
1552413735.6,286047001.7,N
1552413755.5,286047001.9,N
1552413775.3,286047002.8,N
1552413795.1,286047000.0,N
1552413815.9,286047000.3,N
1552413835.7,286047000.4,N
1552413855.5,286047001.3,N
1552413875.4,286047002.2,N
1552413895.2,286047002.6,N
1552413915.1,286047000.8,N
1552413916.0,286047000.8,N
1552413935.8,286047000.8,N
1552413955.6,286046998.1,N
1552413975.5,286046998.1,N
1552413995.3,286047000.8,N
1552414015.2,286046998.4,N
1552414035.9,286047000.9,N
1552414055.7,286047002.8,N
1552414075.6,286047002.7,N
1552414095.4,286047002.6,N
1552414115.2,286047001.5,N
1552414135.1,286047000.0,N
1552414136.0,286047000.0,N
1552414155.8,286047000.5,N
1552414175.7,286046998.2,N
1552414195.5,286046997.4,N
1552414215.3,286046999.1,N
1552414235.2,286047001.1,N
1552414255.0,286046998.3,N
1552414255.9,286046998.3,N
1552414275.8,286046999.4,N
1552414295.6,286046998.6,N
1552414315.4,286047001.0,N
1552414335.3,286046999.9,N
1552414355.1,286047002.4,N
1552414375.8,286047004.0,N
1552414395.7,286047001.9,N
1552414415.5,286047000.0,N
1552414435.4,286046998.1,N
1552414455.2,286047001.1,N
1552414475.0,286046998.1,N
1552414475.9,286046998.1,N
1552414495.8,286046998.7,N
1552414515.6,286046999.5,N
1552414535.5,286046995.4,N
1552414555.3,286046996.1,N
1552414575.1,286046995.0,N
1552414595.9,286046995.1,N
1552414615.7,286046995.4,N
1552414635.5,286046996.0,N
1552414655.4,286046995.0,N
1552414675.2,286046995.7,N
1552414695.1,286046995.4,N
1552414696.0,286046995.4,N
1552414715.8,286046997.6,N
1552414735.6,286046999.5,N
1552414755.5,286046998.9,N
1552414775.3,286046999.3,N
1552414795.1,286046998.6,N
1552414815.9,286046998.4,N
1552414835.7,286046998.9,N
1552414855.6,286046999.1,N
1552414875.4,286046998.8,N
1552414895.2,286046998.6,N
1552414915.1,286046998.6,N
1552414916.0,286046998.6,N
1552414935.8,286047000.8,N
1552414955.7,286047000.4,N
1552414975.5,286047001.2,N
1552414995.3,286047000.9,N
1552415015.2,286047002.8,N
1552415035.0,286047001.9,N
1552415035.9,286047001.9,N
1552415055.7,286047001.5,N
1552415075.6,286047002.5,N
1552415095.4,286047002.6,N
1552415115.3,286047003.0,N
1552415135.1,286047003.1,N
1552415136.0,286047003.1,N
1552415155.8,286047003.0,N
1552415175.7,286047003.5,N
1552415195.5,286047002.9,N
1552415215.3,286047004.7,N
1552415235.2,286047004.7,N
1552415255.0,286047007.6,Y
1552415255.9,286047007.6,P
1552415275.8,286047007.5,N
1552415295.6,286047003.2,N
1552415315.4,286047005.4,N
1552415335.3,286047004.5,N
1552415355.1,286047005.3,N
1552415375.9,286047004.6,N
1552415395.7,286047005.8,N
1552415415.5,286047003.5,N
1552415435.4,286047005.5,N
1552415455.2,286047002.9,N
1552415475.0,286047003.0,N
1552415476.0,286047003.0,N
1552415495.8,286047004.8,N
1552415515.6,286047002.9,N
1552415535.5,286047005.4,Y
1552415555.3,286047000.2,P
1552415575.1,286047002.2,N
1552415595.9,286047005.0,N
1552415615.7,286047003.7,N
1552415635.6,286047004.2,N
1552415655.4,286047011.9,Y
1552415675.2,286046996.9,P
1552415695.1,286046997.4,N
1552415696.0,286046997.4,N
1552415715.8,286046997.0,N
1552415735.7,286046998.6,N
1552415755.5,286046998.7,N
1552415775.3,286046999.1,N
1552415795.2,286046999.2,N
1552415815.0,286046998.7,N
1552415815.9,286046998.7,N
1552415835.7,286047001.2,N
1552415855.6,286046998.3,N
1552415875.4,286047000.6,N
1552415895.3,286047000.5,N
1552415915.1,286047000.0,N
1552415916.0,286047000.0,N
1552415935.8,286047000.9,N
1552415955.7,286046998.5,N
1552415975.5,286047000.7,N
1552415995.4,286046998.1,N
1552416015.2,286046999.6,N
1552416035.0,286046996.9,N
1552416035.9,286046996.9,N
1552416055.8,286046997.0,N
1552416075.6,286046996.6,N
1552416095.4,286046995.4,N
1552416115.3,286046995.2,N
1552416135.1,286046993.7,Y
1552416155.9,286046995.1,P
1552416175.7,286046996.1,N
1552416195.5,286046996.4,N
1552416215.4,286046993.6,Y
1552416235.2,286046999.4,P
1552416255.1,286047001.2,N
1552416256.0,286047001.2,N
1552416275.8,286046998.2,N
1552416295.6,286047000.6,N
1552416315.5,286047001.1,N
1552416335.3,286047002.5,N
1552416355.1,286047001.7,N
1552416375.9,286047001.5,N
1552416395.7,286047002.5,N
1552416415.6,286047002.1,N
1552416435.4,286047000.2,N
1552416455.2,286046998.2,N
1552416475.1,286047001.1,N
1552416476.0,286047001.1,N
1552416495.8,286047000.1,N
1552416515.7,286047000.0,N
1552416535.5,286047004.3,N
1552416555.3,286047003.3,N
1552416575.2,286047003.0,N
1552416595.9,286047005.2,N
1552416615.7,286047003.1,N
1552416635.6,286047005.8,N
1552416655.4,286047003.1,N
1552416675.2,286047002.5,N
1552416695.1,286047000.0,N
1552416696.0,286047000.0,N
1552416715.8,286046998.2,N
1552416735.7,286046997.3,N
1552416755.5,286046999.6,N
1552416775.3,286046995.4,N
1552416795.2,286046996.1,N
1552416815.0,286046995.6,N
1552416815.9,286046995.6,N
1552416835.8,286046995.8,N
1552416855.6,286046993.3,N
1552416875.4,286046995.6,N
1552416895.3,286046995.6,N
1552416915.1,286046998.0,N
1552416935.8,286046994.9,N
1552416955.7,286046995.3,N
1552416975.5,286046996.9,N
1552416995.4,286046999.6,N
1552417015.2,286046998.8,N
1552417035.0,286047001.2,N
1552417035.9,286047001.2,N
1552417055.8,286046999.5,N
1552417075.6,286046998.0,N
1552417095.5,286046996.0,N
1552417115.3,286046997.9,N
1552417135.1,286046995.5,N
1552417155.9,286046993.3,N
1552417175.7,286046993.5,N
1552417195.5,286046994.1,N
